Regional Weather Roundup
Issued by NWS

Home | Current Version | Previous Version | Text Only | Print | Product List | Glossary Off
Versions: 1 2 3 4 5 6 7 8 9 10 11 12 13 14 15 16 17 18 19 20 21 22 23 24 25 26 27 28 29 30 31 32 33 34 35 36 37 38 39 40 41 42 43 44 45 46 47 48 49 50

000
ASUS43 KLMK 301602
RWRKY
KENTUCKY REGIONAL WEATHER ROUNDUP
NATIONAL WEATHER SERVICE LOUISVILLE KY
1200 PM EDT SAT JUL 30 2016

NOTE "FAIR" INDICATES FEW OR NO CLOUDS BELOW 12,000 FEET
WITH NO SIGNIFICANT WEATHER AND/OR OBSTRUCTIONS TO VISIBILITY.

KYZ001>023-026-027-061>063-070>075-301700-
WESTERN AND SOUTH CENTRAL KENTUCKY

CITY           SKY/WX    TMP DP  RH WIND       PRES   REMARKS
PADUCAH        CLOUDY    77  71  82 NW7       30.01R
HENDERSON      PTSUNNY   81  70  69 W5        29.97S
OWENSBORO      PTSUNNY   82  73  74 VRB5      29.99S HAZE
HOPKINSVILLE   MOSUNNY   80  71  73 SW7       30.01S
BOWLING GREEN  CLOUDY    79  71  76 W7        30.02R
GLASGOW        NOT AVBL
$$

KYZ024-025-028>034-038-045-046-053-301700-
NORTH CENTRAL KENTUCKY

CITY           SKY/WX    TMP DP  RH WIND       PRES   REMARKS
LOUISVILLE/SDF PTSUNNY   83  69  62 CALM      29.99R
LOUISVILLE/LOU PTSUNNY   81  69  67 W5        29.99S
FORT KNOX      PTSUNNY   81  71  72 SW5       29.99S
$$

KYZ035>037-039>044-047>052-055>060-089>105-301700-
NORTHEAST KENTUCKY

CITY           SKY/WX    TMP DP  RH WIND       PRES   REMARKS
LEXINGTON      CLOUDY    80  71  74 VRB7      30.02S
COVINGTON      PTSUNNY   80  71  74 VRB3      30.00R
FRANKFORT      PTSUNNY   79  71  76 S6        30.00S
$$

KYZ054-064>069-076>088-106>120-301700-
SOUTHEAST KENTUCKY

CITY           SKY/WX    TMP DP  RH WIND       PRES   REMARKS
JACKSON        CLOUDY    79  72  79 VRB3      30.05R
LONDON         PTSUNNY   79  69  71 VRB6      30.05S
SOMERSET       CLOUDY    77  72  83 CALM      30.05S
MIDDLESBORO    CLOUDY    77  72  83 S6        30.07R
MONTICELLO     CLOUDY   N/A N/A N/A W13       30.06S
$$




USA.gov is the U.S. government's official web portal to all federal, state and local government web resources and services.